Location: ??????
(55.6500°N, 37.8000°E)
Time: 14:05:13
(UTC+00:00)

CZ-2C R/B - Pass Details

Date: 14 April 2024
Orbit: 703 x 904 km, 98.2° (Epoch: 18 May)

Event Time Altitude Azimuth Distance (km) Brightness Sun altitude
Rises 01:27:51 0° 11° (N) 3,177 6.9 -8.3°
Reaches altitude 10° 01:30:20 10° 0° (N) 2,276 5.9 -8.0°
Maximum altitude 01:34:37 29° 301° (WNW) 1,379 4.1 -7.5°
Drops below altitude 10° 01:39:03 10° 243° (WSW) 2,369 4.8 -6.9°
Enters shadow 01:39:28 - 241° (WSW) 2,515 5.0 -6.9°
